When you browse on this site, cookies collect data to enhance your experience and personalize the content and advertising you see.
Visit our Privacy Policy to learn more. By continuing to use the site, you agree to this use of cookies and data.
  • In Italy
  • List of Countries
  • For 7 days
  • Water Temperature
  • Satellite Maps
  • Weather Map
  • Weather Widgets
  • user-avatar
    Login

    Hourly Weather Vanadzor

    Today, 22 March, Friday

    Time Temperature Precipitation Wind Pressure Humidity
    00:00 +2°C° 0 mm 1 mps 636 mmHg 88%
    01:00 +2°C° 0 mm 1 mps 636 mmHg 89%
    02:00 +1°C° 0 mm 1 mps 636 mmHg 89%
    03:00 +1°C° 0 mm 1 mps 636 mmHg 90%
    04:00 0°C° 0 mm 0 mps 636 mmHg 90%
    05:00 0°C° 0 mm 0 mps 636 mmHg 89%
    06:00 0°C° 0 mm 0 mps 636 mmHg 89%
    07:00 +1°C° 0 mm 0 mps 636 mmHg 85%
    08:00 +2°C° 0 mm 0 mps 636 mmHg 81%
    09:00 +3°C° 0 mm 0 mps 636 mmHg 76%
    10:00 +5°C° 0.1 mm 1 mps 636 mmHg 72%
    11:00 +5°C° 0.1 mm 1 mps 636 mmHg 68%
    12:00 +6°C° 0.1 mm 1 mps 635 mmHg 64%
    13:00 +6°C° 0.1 mm 1 mps 635 mmHg 62%
    14:00 +6°C° 0.1 mm 1 mps 635 mmHg 60%
    15:00 +6°C° 0.1 mm 1 mps 634 mmHg 58%
    16:00 +5°C° 0 mm 1 mps 634 mmHg 60%
    17:00 +4°C° 0 mm 1 mps 634 mmHg 63%
    18:00 +3°C° 0 mm 1 mps 634 mmHg 65%
    19:00 +3°C° 0 mm 1 mps 634 mmHg 67%
    20:00 +2°C° 0 mm 1 mps 634 mmHg 70%
    21:00 +1°C° 0 mm 1 mps 635 mmHg 72%
    22:00 +1°C° 0 mm 1 mps 635 mmHg 72%
    23:00 +1°C° 0 mm 1 mps 635 mmHg 71%

    Tomorrow, 23 March, Saturday

    Time Temperature Precipitation Wind Pressure Humidity
    00:00 0°C° 0 mm 1 mps 634 mmHg 71%
    01:00 0°C° 0 mm 1 mps 634 mmHg 70%
    02:00 0°C° 0 mm 1 mps 634 mmHg 70%
    03:00 0°C° 0 mm 1 mps 634 mmHg 69%
    04:00 -1°C° 0 mm 1 mps 634 mmHg 70%
    05:00 -1°C° 0 mm 1 mps 634 mmHg 70%
    06:00 -1°C° 0 mm 1 mps 634 mmHg 71%
    07:00 0°C° 0 mm 1 mps 634 mmHg 68%
    08:00 +2°C° 0 mm 1 mps 634 mmHg 64%
    09:00 +3°C° 0 mm 1 mps 634 mmHg 61%
    10:00 +3°C° 0 mm 2 mps 634 mmHg 58%
    11:00 +4°C° 0 mm 2 mps 633 mmHg 55%
    12:00 +5°C° 0 mm 2 mps 633 mmHg 52%
    13:00 +5°C° 0.1 mm 2 mps 632 mmHg 53%
    14:00 +4°C° 0.1 mm 2 mps 632 mmHg 54%
    15:00 +3°C° 0.1 mm 3 mps 631 mmHg 55%
    16:00 +4°C° 0 mm 2 mps 631 mmHg 58%
    17:00 +3°C° 0 mm 2 mps 631 mmHg 61%
    18:00 +3°C° 0 mm 1 mps 631 mmHg 64%
    19:00 +3°C° 0 mm 1 mps 631 mmHg 67%
    20:00 +2°C° 0 mm 1 mps 631 mmHg 71%
    21:00 +1°C° 0 mm 1 mps 631 mmHg 74%
    22:00 +1°C° 0 mm 1 mps 630 mmHg 74%
    23:00 +1°C° 0 mm 1 mps 630 mmHg 74%

    Day after tomorrow, 24 March, Sunday

    Time Temperature Precipitation Wind Pressure Humidity
    00:00 +1°C° 0 mm 1 mps 630 mmHg 73%
    01:00 0°C° 0.1 mm 1 mps 630 mmHg 77%
    02:00 0°C° 0.1 mm 1 mps 629 mmHg 80%
    03:00 0°C° 0.1 mm 1 mps 629 mmHg 83%
    04:00 0°C° 0.8 mm 1 mps 629 mmHg 87%
    05:00 -2°C° 0.8 mm 2 mps 629 mmHg 90%
    06:00 -2°C° 0.8 mm 2 mps 629 mmHg 94%
    07:00 -2°C° 0.9 mm 2 mps 629 mmHg 93%
    08:00 -2°C° 0.9 mm 2 mps 629 mmHg 91%
    09:00 -2°C° 0.9 mm 2 mps 628 mmHg 90%
    10:00 -1°C° 0.6 mm 2 mps 628 mmHg 90%
    11:00 -1°C° 0.6 mm 2 mps 628 mmHg 89%
    12:00 0°C° 0.6 mm 3 mps 627 mmHg 89%
    13:00 -1°C° 1 mm 2 mps 627 mmHg 90%
    14:00 -1°C° 1 mm 2 mps 627 mmHg 91%
    15:00 -1°C° 1 mm 2 mps 626 mmHg 92%
    16:00 -1°C° 1 mm 2 mps 627 mmHg 93%
    17:00 -2°C° 1 mm 2 mps 627 mmHg 94%
    18:00 -2°C° 1 mm 2 mps 627 mmHg 95%
    19:00 -3°C° 0.6 mm 2 mps 627 mmHg 95%
    20:00 -3°C° 0.6 mm 2 mps 628 mmHg 95%
    21:00 -3°C° 0.6 mm 2 mps 628 mmHg 96%
    22:00 -3°C° 0.7 mm 2 mps 628 mmHg 96%
    23:00 -3°C° 0.7 mm 2 mps 628 mmHg 96%

    25 March, Monday

    Time Temperature Precipitation Wind Pressure Humidity
    00:00 -3°C° 0.7 mm 2 mps 628 mmHg 96%
    01:00 -2°C° 0.3 mm 1 mps 628 mmHg 95%
    02:00 -2°C° 0.3 mm 1 mps 628 mmHg 95%
    03:00 -2°C° 0.3 mm 1 mps 628 mmHg 95%
    04:00 -2°C° 0.1 mm 1 mps 628 mmHg 94%
    05:00 -2°C° 0.1 mm 1 mps 628 mmHg 93%
    06:00 -2°C° 0.1 mm 1 mps 629 mmHg 93%
    07:00 -1°C° 0 mm 1 mps 629 mmHg 92%
    08:00 0°C° 0 mm 1 mps 629 mmHg 91%
    09:00 +2°C° 0 mm 1 mps 630 mmHg 90%
    10:00 +2°C° 0 mm 1 mps 629 mmHg 92%
    11:00 +2°C° 0 mm 2 mps 629 mmHg 93%
    12:00 +2°C° 0 mm 2 mps 629 mmHg 95%
    13:00 +2°C° 0.1 mm 2 mps 628 mmHg 95%
    14:00 +3°C° 0.1 mm 2 mps 628 mmHg 94%
    15:00 +3°C° 0.1 mm 2 mps 628 mmHg 93%
    16:00 +2°C° 0.1 mm 2 mps 627 mmHg 94%
    17:00 +2°C° 0.1 mm 2 mps 627 mmHg 94%
    18:00 +1°C° 0.1 mm 2 mps 627 mmHg 94%
    19:00 +1°C° 0.1 mm 2 mps 628 mmHg 95%
    20:00 +1°C° 0.1 mm 2 mps 628 mmHg 95%
    21:00 -1°C° 0.1 mm 2 mps 628 mmHg 96%
    22:00 -1°C° 0.1 mm 2 mps 628 mmHg 96%
    23:00 -1°C° 0.1 mm 2 mps 628 mmHg 96%

    26 March, Tuesday

    Time Temperature Precipitation Wind Pressure Humidity
    00:00 -1°C° 0.1 mm 2 mps 627 mmHg 96%
    01:00 -1°C° 0.4 mm 2 mps 627 mmHg 96%
    02:00 -1°C° 0.4 mm 2 mps 627 mmHg 96%
    03:00 +1°C° 0.4 mm 1 mps 627 mmHg 96%
    04:00 -1°C° 0.5 mm 2 mps 627 mmHg 96%
    05:00 -1°C° 0.5 mm 2 mps 627 mmHg 96%
    06:00 -1°C° 0.5 mm 2 mps 627 mmHg 96%
    07:00 -1°C° 0.3 mm 2 mps 627 mmHg 95%
    08:00 +1°C° 0.3 mm 2 mps 628 mmHg 94%
    09:00 +1°C° 0.3 mm 2 mps 628 mmHg 93%
    10:00 +2°C° 0.2 mm 2 mps 627 mmHg 93%
    11:00 +2°C° 0.2 mm 2 mps 627 mmHg 94%
    12:00 +3°C° 0.2 mm 2 mps 627 mmHg 94%
    13:00 +3°C° 0.1 mm 2 mps 626 mmHg 93%
    14:00 +3°C° 0.1 mm 2 mps 626 mmHg 93%
    15:00 +3°C° 0.1 mm 2 mps 626 mmHg 92%
    16:00 +2°C° 0.1 mm 2 mps 626 mmHg 92%
    17:00 +3°C° 0.1 mm 1 mps 626 mmHg 93%
    18:00 +2°C° 0.1 mm 1 mps 627 mmHg 93%
    19:00 +2°C° 0 mm 1 mps 627 mmHg 93%
    20:00 +1°C° 0 mm 1 mps 627 mmHg 93%
    21:00 0°C° 0 mm 1 mps 628 mmHg 93%
    22:00 0°C° 0 mm 1 mps 628 mmHg 92%
    23:00 -1°C° 0 mm 1 mps 628 mmHg 91%

    27 March, Wednesday

    Time Temperature Precipitation Wind Pressure Humidity
    00:00 -1°C° 0 mm 1 mps 628 mmHg 90%
    01:00 -1°C° 0 mm 1 mps 629 mmHg 88%
    02:00 -1°C° 0 mm 1 mps 629 mmHg 87%
    03:00 -1°C° 0 mm 1 mps 629 mmHg 85%
    04:00 -1°C° 0 mm 1 mps 630 mmHg 84%
    05:00 -1°C° 0 mm 1 mps 630 mmHg 82%
    06:00 -1°C° 0 mm 1 mps 630 mmHg 81%
    07:00 +1°C° 0 mm 1 mps 631 mmHg 80%
    08:00 +3°C° 0 mm 1 mps 632 mmHg 79%
    09:00 +4°C° 0 mm 1 mps 632 mmHg 78%
    10:00 +5°C° 0 mm 1 mps 632 mmHg 78%
    11:00 +6°C° 0 mm 1 mps 632 mmHg 79%
    12:00 +7°C° 0 mm 1 mps 632 mmHg 79%
    13:00 +7°C° 0 mm 1 mps 632 mmHg 78%
    14:00 +7°C° 0 mm 1 mps 632 mmHg 78%
    15:00 +7°C° 0 mm 1 mps 632 mmHg 77%
    16:00 +6°C° 0.1 mm 1 mps 632 mmHg 78%
    17:00 +5°C° 0.1 mm 1 mps 632 mmHg 80%
    18:00 +3°C° 0.1 mm 0 mps 632 mmHg 81%
    19:00 +2°C° 0 mm 0 mps 632 mmHg 82%
    20:00 +2°C° 0 mm 0 mps 632 mmHg 83%
    21:00 +2°C° 0 mm 1 mps 632 mmHg 84%
    22:00 +2°C° 0 mm 1 mps 633 mmHg 84%
    23:00 +2°C° 0 mm 1 mps 633 mmHg 84%
    Show more